This is the latest recevied weather packets stored in our database for station/object S54L-12. If no packets are shown the sender has not sent any weather packets the latest 10 day(s).
| Time | Temp. | Humidity | Pressure | Rain* | Wind** | Luminosity | Snow |
|---|---|---|---|---|---|---|---|
| 1777779933 | 5.56° C | 78% | 924.6 hPa | - | - | - | - |
| 1777779033 | 6.11° C | 77% | 924.6 hPa | - | - | - | - |
| 1777778133 | 5.56° C | 77% | 924.7 hPa | - | - | - | - |
| 1777777233 | 6.11° C | 77% | 924.7 hPa | - | - | - | - |
| 1777776333 | 6.11° C | 75% | 924.8 hPa | - | - | - | - |
| 1777775433 | 6.11° C | 74% | 925 hPa | - | - | - | - |
| 1777774533 | 6.11° C | 75% | 925 hPa | - | - | - | - |
| 1777773635 | 6.11° C | 75% | 925.1 hPa | - | - | - | - |
| 1777772735 | 6.67° C | 74% | 925.2 hPa | - | - | - | - |
| 1777771835 | 6.67° C | 75% | 925.2 hPa | - | - | - | - |
| 1777770935 | 6.11° C | 77% | 925.4 hPa | - | - | - | - |
| 1777770035 | 6.11° C | 79% | 925.4 hPa | - | - | - | - |
| 1777769135 | 5.56° C | 79% | 925.5 hPa | - | - | - | - |
| 1777768235 | 6.11° C | 78% | 925.8 hPa | - | - | - | - |
| 1777767335 | 6.11° C | 76% | 925.8 hPa | - | - | - | - |
| 1777766435 | 6.67° C | 75% | 926 hPa | - | - | - | - |
| 1777765535 | 6.67° C | 76% | 926 hPa | - | - | - | - |
| 1777764634 | 6.67° C | 75% | 926.1 hPa | - | - | - | - |
| 1777763733 | 6.67° C | 76% | 926.3 hPa | - | - | - | - |
| 1777762833 | 6.67° C | 75% | 926.4 hPa | - | - | - | - |
| 1777761033 | 7.22° C | 73% | 926.5 hPa | - | - | - | - |
| 1777760133 | 7.22° C | 72% | 926.5 hPa | - | - | - | - |
| 1777759233 | 7.22° C | 72% | 926.6 hPa | - | - | - | - |
| 1777758333 | 7.22° C | 72% | 926.6 hPa | - | - | - | - |
| 1777757433 | 7.22° C | 72% | 926.5 hPa | - | - | - | - |
* Rain since midnight (hover to see other rain measurements)
** Current wind speed in m/s (hover to see current wind gust speed)